Hebron, KY

10:07 PM EST on February 07, 2016 (GMT -0500)
Cincinnati-Northern KY International

Weather History for KCVG - January, 2012

Change the Weather History Date:

Tuesday, January 17, 2012

  Actual Average Record
Temperature  
Mean Temperature 45 °F 31 °F  
Max Temperature 58 °F 39 °F 63 °F (1952)
Min Temperature 31 °F 23 °F -24 °F (1977)
Degree Days  
Heating Degree Days 20 34  
Month to date heating degree days 510 578  
Since 1 July heating degree days 2156 2497  
Cooling Degree Days 0 0  
Month to date cooling degree days 0 0  
Year to date cooling degree days 0 0  
Moisture  
Dew Point 43 °F    
Average Humidity 79    
Maximum Humidity 93    
Minimum Humidity 64    
Precipitation  
Precipitation 1.37 in 0.10 in 1.37 in (2012)
Month to date precipitation 2.31 1.67  
Year to date precipitation 2.31 1.67  
Snow  
Snow T in 0.20 in 6.10 in (1978)
Month to date snowfall 1.6 3.3  
Since 1 July snowfall 2.0 8.9  
Snow Depth 0.00 in    
Sea Level Pressure  
Sea Level Pressure 29.81 in    
Wind  
Wind Speed 19 mph (WSW)    
Max Wind Speed 35 mph    
Max Gust Speed 44 mph    
Visibility 7 miles    
Events Fog , Rain , Snow , Thunderstorm    
T = Trace of Precipitation, MM = Missing Value Source: NWS Daily Summary

Daily Weather History Graph

Daily Weather History Graph

Search for Another Location

Airport or City:

Trip Planner

Search our weather history database for the weather conditions in past years. The results will help you decide how hot, cold, wet, or windy it might be!

Date:

Astronomy

Jan. 17, 2012 Rise Set
Actual Time 7:55 AM EST 5:42 PM EST
Civil Twilight 7:26 AM EST 6:11 PM EST
Nautical Twilight 6:53 AM EST 6:44 PM EST
Astronomical Twilight 6:21 AM EST 7:16 PM EST
Moon 2:14 AM EST (1/17) 12:34 PM EST (1/17)
Length of Visible Light 10h 44m
Length of Day
9h 46m
Waning Crescent, 35% of the Moon is Illuminated
Jan 17
Waning Crescent
Jan 23
New
Jan 30
First Quarter
Feb 7
Full
Feb 14
Last Quarter

Hourly Weather History & Observations

Time (EST) Temp. Windchill Dew Point Humidity Pressure Visibility Wind Dir Wind Speed Gust Speed Precip Events Conditions
12:52 AM 55.9 °F - 46.9 °F 72% 29.88 in 10.0 mi SSW 17.3 mph 24.2 mph N/A   Overcast
1:52 AM 55.0 °F - 48.0 °F 77% 29.85 in 10.0 mi SSW 13.8 mph 26.5 mph 0.02 in   Overcast
2:52 AM 54.0 °F - 48.0 °F 80% 29.84 in 10.0 mi SSW 16.1 mph 28.8 mph 0.02 in Rain Light Rain
3:52 AM 51.1 °F - 48.0 °F 89% 29.81 in 6.0 mi South 21.9 mph 28.8 mph 0.07 in Rain Light Rain
4:52 AM 50.0 °F - 48.0 °F 93% 29.79 in 5.0 mi South 19.6 mph 28.8 mph 0.19 in Rain Light Rain
6:30 AM 51.8 °F - 46.4 °F 82% 29.73 in 10.0 mi South 15.0 mph - 0.00 in   Overcast
6:52 AM 52.0 °F - 48.0 °F 86% 29.72 in 10.0 mi South 15.0 mph 24.2 mph 0.00 in   Overcast
7:52 AM 54.0 °F - 51.1 °F 90% 29.68 in 4.0 mi South 23.0 mph 33.4 mph 0.10 in Rain Light Rain
8:04 AM 53.6 °F - 51.8 °F 94% 29.69 in 6.0 mi SSW 19.6 mph 33.4 mph 0.01 in Rain Light Rain
8:25 AM 55.4 °F - 51.8 °F 88% 29.75 in 7.0 mi WNW 21.9 mph 32.2 mph N/A Rain Light Rain
8:52 AM 54.0 °F - 46.9 °F 77% 29.73 in 8.0 mi WSW 10.4 mph - 0.03 in Rain Light Rain
9:52 AM 54.0 °F - 51.1 °F 90% 29.68 in 8.0 mi South 16.1 mph - 0.09 in   Overcast
10:44 AM 55.4 °F - 51.8 °F 88% 29.74 in 0.5 mi WNW 29.9 mph 39.1 mph 0.03 in Rain Rain
10:47 AM 53.6 °F - 50.0 °F 88% 29.75 in 0.5 mi West 27.6 mph 43.7 mph 0.03 in Rain , Thunderstorm Heavy Thunderstorms and Rain
10:49 AM 51.8 °F - 50.0 °F 94% 29.74 in 0.5 mi West 24.2 mph 43.7 mph 0.08 in Fog , Rain , Thunderstorm Heavy Thunderstorms and Rain
10:52 AM 52.0 °F - 50.0 °F 93% 29.73 in 0.5 mi West 21.9 mph 43.7 mph 0.30 in Rain , Thunderstorm Thunderstorms and Rain
11:11 AM 53.6 °F - 51.8 °F 94% 29.71 in 2.5 mi West 13.8 mph 27.6 mph 0.31 in Rain Rain
11:45 AM 53.6 °F - 51.8 °F 94% 29.68 in 7.0 mi SW 12.7 mph 23.0 mph 0.46 in Rain Light Rain
11:52 AM 53.1 °F - 51.1 °F 93% 29.66 in 8.0 mi SSW 13.8 mph 20.7 mph 0.46 in Rain Light Rain
12:43 PM 55.4 °F - 51.8 °F 88% 29.68 in 10.0 mi WSW 15.0 mph 25.3 mph 0.01 in   Overcast
12:52 PM 55.0 °F - 51.1 °F 86% 29.67 in 10.0 mi WSW 13.8 mph 27.6 mph 0.01 in   Overcast
1:36 PM 55.4 °F - 50.0 °F 82% 29.66 in 10.0 mi WSW 16.1 mph 26.5 mph N/A   Mostly Cloudy
1:52 PM 57.0 °F - 50.0 °F 77% 29.64 in 10.0 mi West 19.6 mph 27.6 mph N/A   Mostly Cloudy
2:52 PM 53.1 °F - 42.1 °F 66% 29.71 in 10.0 mi West 26.5 mph 36.8 mph N/A   Overcast
3:20 PM 46.4 °F 37.4 °F 39.2 °F 76% 29.77 in 8.0 mi WNW 28.8 mph 36.8 mph N/A   Overcast
3:52 PM 44.1 °F 35.4 °F 37.0 °F 76% 29.81 in 8.0 mi WNW 21.9 mph 29.9 mph N/A   Overcast
4:39 PM 42.8 °F 33.5 °F 33.8 °F 70% 29.86 in 6.0 mi WNW 23.0 mph 36.8 mph N/A   Haze
4:52 PM 41.0 °F 31.1 °F 32.0 °F 70% 29.87 in 6.0 mi WNW 23.0 mph 36.8 mph N/A   Haze
5:08 PM 39.2 °F 27.2 °F 32.0 °F 75% 29.89 in 5.0 mi WNW 31.1 mph 36.8 mph N/A   Haze
5:52 PM 37.0 °F 25.1 °F 28.9 °F 73% 29.93 in 9.0 mi WNW 26.5 mph 36.8 mph N/A   Overcast
6:52 PM 35.6 °F 24.2 °F 28.4 °F 75% 29.97 in 10.0 mi WNW 21.9 mph 29.9 mph N/A   Overcast
7:52 PM 36.0 °F 26.0 °F 25.0 °F 64% 30.02 in 10.0 mi WNW 17.3 mph 32.2 mph N/A   Overcast
8:52 PM 34.0 °F 22.7 °F 24.1 °F 67% 30.05 in 10.0 mi WNW 19.6 mph - N/A   Overcast
9:52 PM 34.0 °F 23.8 °F 25.0 °F 70% 30.08 in 9.0 mi WNW 16.1 mph 24.2 mph 0.00 in Snow Light Snow
10:52 PM 33.1 °F 21.9 °F 25.0 °F 72% 30.11 in 9.0 mi WNW 18.4 mph - 0.00 in Snow Light Snow
11:52 PM 32.0 °F 20.1 °F 24.1 °F 73% 30.14 in 9.0 mi WNW 19.6 mph - 0.00 in Snow Light Snow